[[{"header":{"parameterUnit":"m.s-1","parameterCategory":1,"la1":30.2991,"la2":30.254,"lo1":-89.0895,"lo2":-89.0444,"dy":0.0017,"dx":0.0017,"nx":28,"ny":28,"refTime":"2024-02-02T03:00:00:Z","depth":0,"parameterNumber":2,"parameterNumberName":"U-component_of_WINDS"},"data":[0,0,0,0,0,0,0,0,0,0,0,0,0,0,0,0,0,0,0,0,0,0,0,0,0,0,0,0,0,0,0,0,0,0,0,0,0,0,0,0,0,0,0,0,0,0,0,0,0,0,0,0,0,0,0,0,0,0,-0.1323,-0.1323,0,-0.1296,-0.1295,-0.1295,-0.1267,-0.1266,-0.1266,-0.1266,-0.1238,-0.1238,-0.1238,0,0,0,0,0,0,0,0,0,0,0,0,0,-0.1352,-0.1352,-0.1323,-0.1323,-0.1323,-0.1296,-0.1295,-0.1295,-0.1267,-0.1266,-0.1266,-0.1266,-0.1238,-0.1238,-0.1238,0,0,0,0,0,0,0,0,0,0,0,0,0,-0.1334,-0.1352,-0.1323,-0.1305,-0.1303,-0.1296,-0.1295,-0.1295,-0.1267,-0.1266,-0.1266,-0.1265,-0.1239,-0.1238,-0.1237,-0.1246,0,0,-0.1236,-0.1236,0,0,0,0,0,0,0,0,-0.1335,-0.1333,-0.1308,-0.1307,-0.1304,-0.1284,-0.1296,-0.1278,-0.1267,-0.1281,-0.1266,-0.1265,-0.1254,-0.1252,-0.1248,-0.1244,-0.1243,-0.1236,-0.1235,-0.1235,-0.1235,0,0,0,0,0,0,0,-0.1336,-0.1334,-0.1312,-0.1308,-0.1306,-0.1299,-0.1296,-0.1292,-0.1271,-0.128,-0.1277,-0.1275,-0.1253,-0.1249,-0.1247,-0.1243,-0.1236,-0.1235,-0.1235,-0.1235,-0.1245,-0.1245,0,0,0,0,0,0,-0.134,-0.1335,-0.1313,-0.1312,-0.1319,-0.1299,-0.1295,-0.1291,-0.1271,-0.1267,-0.1275,-0.1273,-0.125,-0.1248,-0.1246,-0.1255,-0.1235,-0.1235,-0.1234,-0.1244,-0.1245,-0.1245,0,0,0,0,0,0,-0.1341,-0.1339,-0.1314,-0.1323,-0.1319,-0.1299,-0.1295,-0.1291,-0.1287,-0.1268,-0.1264,-0.1275,-0.125,-0.1247,-0.1246,-0.1254,-0.1234,-0.1234,-0.1243,-0.1244,-0.1245,-0.1272,0,0,0,0,0,0,-0.1342,-0.1339,-0.1342,-0.1323,-0.1319,-0.1314,-0.1295,-0.1291,-0.1286,-0.1283,-0.1266,-0.1263,-0.1249,-0.1247,-0.1246,-0.1253,-0.1233,-0.1243,-0.1244,-0.1245,-0.1271,-0.1274,-0.1277,0,0,0,0,0,-0.1343,-0.1351,-0.1342,-0.134,-0.1322,-0.1315,-0.1313,-0.1296,-0.1287,-0.1289,-0.1277,-0.1264,-0.1253,-0.1247,-0.1245,-0.1252,-0.1242,-0.1243,-0.1245,-0.1269,-0.1273,-0.1277,0,0,0,0,0,0,-0.1371,-0.1348,-0.1338,-0.134,-0.1329,-0.131,-0.1313,-0.1301,-0.1293,-0.1291,-0.1271,-0.1268,-0.1269,-0.126,-0.1254,-0.1259,-0.1246,-0.1247,-0.1265,-0.1269,-0.1272,-0.1274,-0.1233,0,0,0,0,0,-0.1377,-0.1373,-0.1353,-0.1357,-0.1352,-0.1334,-0.133,-0.1318,-0.1307,-0.1302,-0.129,-0.128,-0.1274,-0.1271,-0.1264,-0.1269,-0.1265,-0.1273,-0.1276,-0.1279,-0.128,-0.1282,-0.1286,-0.125,-0.125,-0.125,0,0,-0.139,-0.1377,-0.1376,-0.1362,-0.1353,-0.1349,-0.133,-0.1327,-0.1325,-0.1302,-0.13,-0.1291,-0.1278,-0.128,-0.128,-0.1273,-0.1289,-0.128,-0.1283,-0.1282,-0.1284,-0.1287,-0.129,-0.1251,-0.1251,-0.125,0,0,-0.1412,-0.1402,-0.1404,-0.1395,-0.1381,-0.1368,-0.1369,-0.1351,-0.1344,-0.1342,-0.1325,-0.1322,-0.1312,-0.1304,-0.1299,-0.1318,-0.1305,-0.1316,-0.1333,-0.1335,-0.1338,-0.1341,-0.1348,-0.1351,-0.1318,-0.1318,-0.1318,0,-0.143,-0.1425,-0.1406,-0.1405,-0.1399,-0.1378,-0.138,-0.1372,-0.1357,-0.1354,-0.1346,-0.1334,-0.1324,-0.1324,-0.1328,-0.1325,-0.1325,-0.1319,-0.1339,-0.1341,-0.1343,-0.135,-0.1353,-0.1319,-0.1319,-0.1319,-0.1319,0,-0.1448,-0.1444,-0.1447,-0.1433,-0.1428,-0.1428,-0.141,-0.1407,-0.1396,-0.1384,-0.1382,-0.137,-0.1361,-0.136,-0.1348,-0.1358,-0.1354,-0.1343,-0.1329,-0.1349,-0.1355,-0.1357,-0.1321,-0.1321,-0.132,-0.132,0,0,-0.1487,-0.1462,-0.1464,-0.1457,-0.144,-0.1437,-0.1437,-0.1428,-0.1426,-0.1416,-0.1415,-0.1408,-0.1397,-0.1391,-0.1379,-0.1381,-0.1398,-0.137,-0.1369,-0.1376,-0.1408,-0.1417,-0.142,-0.1389,-0.139,-0.139,-0.1409,0,-0.1507,-0.1504,-0.1487,-0.149,-0.1486,-0.1466,-0.1465,-0.1455,-0.1445,-0.144,-0.1429,-0.1424,-0.141,-0.1407,-0.1408,-0.1396,-0.1404,-0.1394,-0.1389,-0.1389,-0.1393,-0.1423,-0.1433,-0.1452,-0.1412,-0.1412,-0.1412,0,-0.1529,-0.1521,-0.1523,-0.1506,-0.1504,-0.1504,-0.1494,-0.149,-0.1478,-0.147,-0.1464,-0.145,-0.1448,-0.1435,-0.1433,-0.1426,-0.1423,-0.1417,-0.1417,-0.1417,-0.1402,-0.1424,-0.1457,-0.146,-0.1416,-0.1415,-0.1415,0,-0.1558,-0.1547,-0.1547,-0.1542,-0.1522,-0.1523,-0.1515,-0.1502,-0.1498,-0.1489,-0.1487,-0.1478,-0.1474,-0.1468,-0.1453,-0.1444,-0.1453,-0.1438,-0.1446,-0.1447,-0.145,-0.145,-0.1483,-0.1447,-0.1447,-0.1447,-0.1447,0,-0.1582,-0.1584,-0.156,-0.156,-0.1562,-0.1543,-0.1545,-0.1535,-0.1524,-0.1522,-0.1504,-0.1503,-0.1482,-0.1478,-0.1466,-0.1467,-0.1465,-0.1459,-0.1455,-0.1461,-0.1461,-0.1459,-0.1457,-0.1447,-0.1447,-0.1447,-0.1447,0,-0.1615,-0.1599,-0.1597,-0.1579,-0.1574,-0.1576,-0.1561,-0.156,-0.1548,-0.1546,-0.1544,-0.1526,-0.1521,-0.1504,-0.1495,-0.1487,-0.1491,-0.1485,-0.1495,-0.1493,-0.1503,-0.1503,-0.1537,-0.154,-0.1501,-0.1502,-0.1502,0,-0.1632,-0.1633,-0.1614,-0.1611,-0.1604,-0.16,-0.1595,-0.1577,-0.1573,-0.1559,-0.1561,-0.1554,-0.1547,-0.154,-0.1526,-0.1519,-0.1513,-0.1525,-0.1511,-0.1517,-0.1513,-0.1514,-0.1514,-0.1528,-0.1529,-0.1529,-0.1529,0,-0.1663,-0.1655,-0.1649,-0.164,-0.1635,-0.1627,-0.1619,-0.1618,-0.1597,-0.1593,-0.1588,-0.1583,-0.1573,-0.1567,-0.1558,-0.1549,-0.1536,-0.1534,-0.1535,-0.1541,-0.1547,-0.1544,-0.1504,-0.1533,-0.1533,-0.1532,-0.1532,-0.1532,-0.1688,-0.1689,-0.1676,-0.167,-0.1661,-0.1654,-0.1652,-0.164,-0.1635,-0.1626,-0.1615,-0.1611,-0.1599,-0.1585,-0.1578,-0.1574,-0.1567,-0.157,-0.157,-0.1571,-0.1574,-0.1547,-0.1573,-0.1573,-0.1572,-0.1572,-0.1572,0,-0.1719,-0.171,-0.1705,-0.1693,-0.1688,-0.1676,-0.1666,-0.1663,-0.1659,-0.1649,-0.1643,-0.1637,-0.1631,-0.1616,-0.1609,-0.1609,-0.1603,-0.1608,-0.1608,-0.1606,-0.1581,-0.158,-0.1613,-0.1613,-0.1613,-0.1613,-0.1613,-0.1613,-0.1735,-0.1735,-0.1725,-0.1721,-0.1711,-0.1707,-0.1702,-0.1695,-0.1687,-0.1681,-0.1675,-0.1666,-0.1654,-0.1646,-0.164,-0.1636,-0.1634,-0.1641,-0.1635,-0.1612,-0.1608,-0.1604,-0.1604,-0.1641,-0.1641,-0.1661,-0.1661,-0.1661]},{"header":{"parameterUnit":"m.s-1","parameterCategory":1,"la1":30.2991,"la2":30.254,"lo1":-89.0895,"lo2":-89.0444,"dy":0.0017,"dx":0.0017,"nx":28,"ny":28,"refTime":"2024-02-02T03:00:00:Z","depth":0,"parameterNumber":3,"parameterNumberName":"V-component_of_WINDS"},"data":[0,0,0,0,0,0,0,0,0,0,0,0,0,0,0,0,0,0,0,0,0,0,0,0,0,0,0,0,0,0,0,0,0,0,0,0,0,0,0,0,0,0,0,0,0,0,0,0,0,0,0,0,0,0,0,0,0,0,-0.4012,-0.4013,0,-0.4043,-0.4043,-0.4043,-0.4028,-0.4027,-0.4026,-0.4025,-0.4055,-0.4057,-0.4058,0,0,0,0,0,0,0,0,0,0,0,0,0,-0.394,-0.3942,-0.4012,-0.4013,-0.4013,-0.4043,-0.4043,-0.4043,-0.4028,-0.4027,-0.4026,-0.4025,-0.4055,-0.4057,-0.4058,0,0,0,0,0,0,0,0,0,0,0,0,0,-0.3971,-0.3942,-0.4012,-0.4009,-0.4009,-0.4043,-0.4043,-0.4044,-0.4028,-0.4027,-0.4026,-0.4024,-0.4054,-0.4056,-0.4059,-0.4097,0,0,-0.4066,-0.4067,0,0,0,0,0,0,0,0,-0.397,-0.3974,-0.4009,-0.4009,-0.4009,-0.403,-0.4029,-0.4061,-0.4028,-0.4021,-0.4025,-0.4024,-0.4048,-0.4051,-0.4059,-0.4098,-0.41,-0.4066,-0.4067,-0.4068,-0.4069,0,0,0,0,0,0,0,-0.3967,-0.3973,-0.4024,-0.401,-0.401,-0.4006,-0.4009,-0.4035,-0.4041,-0.4021,-0.402,-0.4024,-0.4048,-0.4057,-0.4059,-0.41,-0.4066,-0.4068,-0.4069,-0.407,-0.4173,-0.4175,0,0,0,0,0,0,-0.3966,-0.3971,-0.4023,-0.4025,-0.3986,-0.4008,-0.4011,-0.4025,-0.404,-0.4042,-0.4025,-0.4023,-0.4053,-0.4057,-0.406,-0.4107,-0.4068,-0.4071,-0.4072,-0.4172,-0.4174,-0.4175,0,0,0,0,0,0,-0.3964,-0.397,-0.4022,-0.3998,-0.4004,-0.401,-0.4026,-0.4026,-0.4035,-0.4043,-0.4044,-0.4033,-0.4052,-0.4057,-0.4088,-0.4108,-0.4072,-0.4074,-0.4171,-0.4173,-0.4174,-0.42,0,0,0,0,0,0,-0.3962,-0.397,-0.3985,-0.3998,-0.4005,-0.405,-0.4027,-0.4027,-0.4039,-0.4037,-0.4051,-0.4052,-0.4052,-0.4085,-0.4091,-0.411,-0.4076,-0.4169,-0.4171,-0.4174,-0.4198,-0.4203,-0.4207,0,0,0,0,0,-0.396,-0.3991,-0.3986,-0.3992,-0.4024,-0.4051,-0.4055,-0.4054,-0.4041,-0.4056,-0.4061,-0.4052,-0.4105,-0.4088,-0.4095,-0.4115,-0.4168,-0.4171,-0.4174,-0.4196,-0.4202,-0.4207,0,0,0,0,0,0,-0.3979,-0.3992,-0.3987,-0.4023,-0.4036,-0.4048,-0.4067,-0.4061,-0.4078,-0.4075,-0.4073,-0.4076,-0.4109,-0.4115,-0.4096,-0.4154,-0.4134,-0.4138,-0.4149,-0.4155,-0.4159,-0.4158,-0.4077,0,0,0,0,0,-0.3987,-0.4008,-0.4019,-0.405,-0.4056,-0.4061,-0.4072,-0.4071,-0.4084,-0.4089,-0.4097,-0.411,-0.4129,-0.4142,-0.416,-0.4198,-0.4201,-0.4216,-0.422,-0.4224,-0.4229,-0.425,-0.4256,-0.4185,-0.4185,-0.4185,0,0,-0.4005,-0.4015,-0.4028,-0.4054,-0.4064,-0.4085,-0.4065,-0.4089,-0.4105,-0.4093,-0.4123,-0.4129,-0.4143,-0.4178,-0.4194,-0.4184,-0.4249,-0.4228,-0.4231,-0.4233,-0.4253,-0.426,-0.4266,-0.4187,-0.4187,-0.4187,0,0,-0.4049,-0.4058,-0.4085,-0.4095,-0.4111,-0.4113,-0.412,-0.4133,-0.4137,-0.4167,-0.4159,-0.4177,-0.4211,-0.4222,-0.4232,-0.428,-0.4272,-0.4285,-0.4311,-0.4332,-0.4337,-0.4342,-0.436,-0.4366,-0.4289,-0.4289,-0.4289,0,-0.4069,-0.4101,-0.41,-0.4124,-0.4136,-0.4126,-0.4154,-0.4164,-0.4184,-0.4192,-0.4181,-0.4224,-0.4232,-0.427,-0.4282,-0.429,-0.4297,-0.4284,-0.4337,-0.4342,-0.4346,-0.4363,-0.437,-0.4291,-0.4291,-0.4291,-0.429,0,-0.4125,-0.4148,-0.4168,-0.4189,-0.4203,-0.4229,-0.4231,-0.4245,-0.4242,-0.4246,-0.4277,-0.4287,-0.4308,-0.4317,-0.4314,-0.4354,-0.4348,-0.4337,-0.4317,-0.4355,-0.4371,-0.4377,-0.4293,-0.4293,-0.4292,-0.4292,0,0,-0.4182,-0.4202,-0.4209,-0.4219,-0.4235,-0.4253,-0.4278,-0.4299,-0.4311,-0.4325,-0.4347,-0.4376,-0.4366,-0.4377,-0.4375,-0.4393,-0.4432,-0.438,-0.438,-0.439,-0.4477,-0.4486,-0.4494,-0.4426,-0.4427,-0.4428,-0.4476,0,-0.4227,-0.4273,-0.4272,-0.4314,-0.4335,-0.4326,-0.4348,-0.4361,-0.4365,-0.4384,-0.4388,-0.4409,-0.4394,-0.44,-0.4418,-0.4423,-0.4449,-0.442,-0.4447,-0.4448,-0.4444,-0.4502,-0.4511,-0.4556,-0.4482,-0.4484,-0.4484,0,-0.4286,-0.4303,-0.4348,-0.4361,-0.437,-0.439,-0.441,-0.4427,-0.4441,-0.4443,-0.4456,-0.4451,-0.4477,-0.4456,-0.4492,-0.4472,-0.4483,-0.4487,-0.4489,-0.4492,-0.4469,-0.4507,-0.457,-0.4577,-0.4494,-0.4493,-0.4492,0,-0.4324,-0.4358,-0.4389,-0.4398,-0.4414,-0.4429,-0.4436,-0.4449,-0.4461,-0.4478,-0.4486,-0.4505,-0.4516,-0.453,-0.4531,-0.4516,-0.4568,-0.4547,-0.457,-0.457,-0.4582,-0.4581,-0.4648,-0.4588,-0.4588,-0.4587,-0.4587,0,-0.4376,-0.4403,-0.4407,-0.4426,-0.4457,-0.4456,-0.4486,-0.4492,-0.4503,-0.4524,-0.4516,-0.4535,-0.4535,-0.4554,-0.4554,-0.4584,-0.4589,-0.4591,-0.4591,-0.4593,-0.4592,-0.46,-0.4597,-0.4589,-0.4589,-0.4588,-0.4588,0,-0.4424,-0.4427,-0.446,-0.4473,-0.4477,-0.4499,-0.4511,-0.4529,-0.4532,-0.4558,-0.4564,-0.4569,-0.4592,-0.4594,-0.4619,-0.462,-0.4656,-0.4653,-0.4652,-0.4652,-0.4675,-0.4674,-0.475,-0.4761,-0.4693,-0.4693,-0.4694,0,-0.4456,-0.4477,-0.4493,-0.4506,-0.4515,-0.4536,-0.4549,-0.4549,-0.4563,-0.458,-0.4596,-0.4618,-0.4636,-0.4672,-0.4678,-0.4698,-0.4695,-0.472,-0.4698,-0.4698,-0.4696,-0.4695,-0.4698,-0.4725,-0.4726,-0.4726,-0.4727,0,-0.4514,-0.4515,-0.4535,-0.4555,-0.4571,-0.4586,-0.4601,-0.4612,-0.4613,-0.4629,-0.4652,-0.4666,-0.4693,-0.4714,-0.4734,-0.4741,-0.4735,-0.4734,-0.474,-0.4742,-0.4741,-0.4743,-0.4665,-0.4732,-0.4732,-0.4731,-0.4731,-0.4731,-0.4556,-0.4575,-0.4589,-0.4611,-0.4622,-0.4636,-0.4654,-0.466,-0.468,-0.4702,-0.47,-0.4726,-0.4739,-0.4765,-0.4774,-0.4794,-0.4785,-0.4794,-0.4797,-0.4799,-0.4802,-0.4738,-0.4797,-0.4797,-0.4797,-0.4797,-0.4796,0,-0.4615,-0.4624,-0.4644,-0.4665,-0.4682,-0.4674,-0.469,-0.4705,-0.4728,-0.4741,-0.4759,-0.4786,-0.4807,-0.4815,-0.4835,-0.485,-0.4847,-0.4855,-0.4855,-0.4857,-0.4808,-0.4801,-0.4857,-0.4857,-0.4857,-0.4857,-0.4857,-0.4857,-0.4647,-0.4679,-0.4681,-0.4718,-0.4727,-0.4752,-0.4762,-0.4775,-0.4786,-0.4816,-0.4834,-0.4839,-0.485,-0.4872,-0.4891,-0.4893,-0.4901,-0.4911,-0.4911,-0.4866,-0.486,-0.4854,-0.4847,-0.4912,-0.4912,-0.4958,-0.4958,-0.4959]}]]